Home > Weather > Konstanz > Past weeks

Flag for Germany Weather for the Past 2 Weeks in Konstanz, Baden-Württemberg, Germany

Now
43 °F

Overcast.


Feels Like: 35 °F
Forecast: 35 / 38 °F
Wind: 15 mph from Southwest

Location: Friedrichshafen Airport

Current Time: Feb 9, 2016 at 10:27:57 PM

Latest Report: Feb 9, 2016 at 9:50 PM


Visibility: N/A

Pressure: 29.36 "Hg

Humidity: 66%

Dew point: 32 °F

Location of KonstanzLocation

Historic Weather in Konstanz — Graph

°F

Konstanz Temperature Yesterday

Maximum temperature yesterday: 54 °F (at 5:50 PM)
Minimum temperature yesterday: 32 °F (at 5:20 AM)
Average temperature yesterday: 44 °F

High & Low Weather Summary for the Past Weeks

 TemperatureHumidityPressure
High55 °F (Feb 1, 1:50 PM)93% (Jan 25, 11:55 PM)30.48 "Hg (Jan 25, 11:55 PM)
Low28 °F (Jan 25, 11:55 PM)47% (Feb 7, 10:50 AM)29.30 "Hg (Feb 9, 5:20 PM)
Average42 °F78%30.14 "Hg
* Reported Jan 25 8:20 PM — Feb 9 8:50 PM, Konstanz, Weather by CustomWeather, © 2016

Note: Actual official high and low records may vary slightly from our data, if they occured in-between our weather recording intervals... More about our weather records

Advertising

Konstanz Weather History for the Previous 24 Hours

 ConditionsComfort  
Time TempWeatherWind HumidityBarometerVisibility
8:50 PM
Tue, Feb 9
43 °FLight rain. Mostly cloudy.20 mph71%29.36 "HgN/A
8:20 PM39 °FSprinkles. Mostly cloudy.17 mph81%29.39 "HgN/A
7:50 PM41 °FSprinkles. Overcast.20 mph76%29.36 "HgN/A
7:20 PM50 °FSprinkles. Mostly cloudy.23 mph54%29.30 "HgN/A
6:50 PM52 °FSprinkles. Mostly cloudy.25 mph54%29.30 "HgN/A
6:20 PM50 °FMostly cloudy.9 mph54%29.30 "HgN/A
5:50 PM48 °FMostly cloudy.12 mph62%29.30 "HgN/A
5:20 PM52 °FLight rain. Mostly cloudy.20 mph50%29.30 "HgN/A
4:50 PM48 °FOvercast.6 mph66%29.33 "HgN/A
4:20 PM46 °FMore clouds than sun.5 mph71%29.33 "HgN/A
3:50 PM45 °FMore clouds than sun.3 mph81%29.33 "HgN/A
3:20 PM46 °FMore clouds than sun.3 mph71%29.33 "HgN/A
2:50 PM46 °FSprinkles. Cloudy.No wind76%29.39 "HgN/A
2:20 PM46 °FCloudy.2 mph71%29.42 "HgN/A
1:50 PM46 °FMore clouds than sun.2 mph71%29.42 "HgN/A
1:20 PM46 °FBroken clouds.2 mph76%29.45 "HgN/A
12:50 PM48 °FBroken clouds.3 mph71%29.47 "HgN/A
12:20 PM46 °FBroken clouds.3 mph76%29.47 "HgN/A
10:50 AM43 °FLight rain. Mostly cloudy.5 mph87%29.59 "HgN/A
10:20 AM45 °FSunny.2 mph76%29.62 "Hg10 mi
9:50 AM45 °FSunny.3 mph71%29.65 "Hg10 mi
8:50 AM45 °FSunny.3 mph71%29.65 "Hg10 mi
8:20 AM45 °FSunny.8 mph71%29.68 "Hg10 mi
7:50 AM45 °FSunny.8 mph71%29.68 "Hg10 mi
7:20 AM46 °FClear.8 mph66%29.71 "Hg10 mi
6:50 AM46 °FClear.6 mph66%29.71 "Hg10 mi
6:20 AM45 °FClear.2 mph71%29.74 "Hg10 mi
5:50 AM43 °FClear.6 mph76%29.74 "Hg10 mi
5:20 AM45 °FPassing clouds.7 mph71%29.77 "HgN/A
4:50 AM45 °FPassing clouds.10 mph76%29.77 "HgN/A
4:20 AM43 °FPartly cloudy.13 mph81%29.80 "HgN/A
3:50 AM45 °FPassing clouds.14 mph76%29.80 "HgN/A
3:20 AM43 °FSprinkles. Overcast.13 mph81%29.83 "HgN/A
2:50 AM43 °FSprinkles. Mostly cloudy.17 mph76%29.83 "HgN/A
2:20 AM45 °FSprinkles. Mostly cloudy.15 mph71%29.83 "HgN/A
1:55 AM45 °FSprinkles. Mostly cloudy.17 mph71%29.86 "HgN/A
1:20 AM45 °FPassing clouds.9 mph71%29.83 "HgN/A
12:50 AM43 °FPassing clouds.6 mph81%29.83 "HgN/A
12:20 AM43 °FPassing clouds.8 mph81%29.86 "HgN/A
11:50 PM
Mon, Feb 8
45 °FPassing clouds.10 mph76%29.83 "HgN/A
11:20 PM45 °FSprinkles. Mostly cloudy.10 mph76%29.83 "HgN/A
10:59 PM45 °FRain showers. Mostly cloudy.9 mph81%29.83 "Hg6 mi
10:20 PM48 °FPartly cloudy.15 mph66%29.80 "HgN/A
Weather by CustomWeather, © 2016

See weather overviewHow to use our weather pages